KC7FQC Weather Reports


Display with metric or nautical units.
time (UTC)temp
F
wind
direction
speed
MPH
gust
MPH
rain 1hr
in
rain 24hr
in
rain mn
in
humidity
%
barometer
mb
20171213220045 75 211 6.0 8.0 0.00 0.00 0.00 11 1013.4
20171213213015 76 205 3.0 7.0 0.00 0.00 0.00 9 1014.0
20171213210015 77 280 2.0 6.0 0.00 0.00 0.00 9 1014.1
20171213203045 74 304 1.0 5.0 0.00 0.00 0.00 10 1014.7
20171213200015 75 306 2.0 5.0 0.00 0.00 0.00 9 1015.3
20171213193031 74 309 5.0 5.0 0.00 0.00 0.00 10 1015.9
20171213190045 71 309 2.0 6.0 0.00 0.00 0.00 11 1016.6
20171213183045 70 323 2.0 5.0 0.00 0.00 0.00 12 1017.2
20171213180045 66 326 2.0 4.0 0.00 0.00 0.00 13 1017.6
20171213173015 64 327 0.0 2.0 0.00 0.00 0.00 15 1017.9
20171213170046 62 327 0.0 3.0 0.00 0.00 0.00 15 1018.2
20171213163000 58 327 2.0 3.0 0.00 0.00 0.00 19 1018.0
20171213160045 53 327 0.0 2.0 0.00 0.00 0.00 22 1017.6
20171213153045 48 327 1.0 4.0 0.00 0.00 0.00 26 1017.5
20171213150045 45 18 0.0 2.0 0.00 0.00 0.00 28 1017.3
20171213143015 43 29 1.0 2.0 0.00 0.00 0.00 29 1017.3
20171213140045 43 29 0.0 2.0 0.00 0.00 0.00 32 1016.9
20171213133045 43 29 0.0 0.0 0.00 0.00 0.00 32 1017.0
20171213130030 44 29 0.0 0.0 0.00 0.00 0.00 30 1016.7
20171213123046 46 29 0.0 1.0 0.00 0.00 0.00 28 1016.9
20171213120045 47 29 0.0 4.0 0.00 0.00 0.00 25 1016.7
20171213113045 48 30 4.0 5.0 0.00 0.00 0.00 24 1016.9
20171213110030 50 28 0.0 1.0 0.00 0.00 0.00 21 1017.2
20171213100037 50 25 2.0 4.0 0.00 0.00 0.00 19 1017.5
20171213093037 49 25 0.0 4.0 0.00 0.00 0.00 22 1017.5
20171213090037 51 25 0.0 4.0 0.00 0.00 0.00 21 1017.6
20171213083007 52 25 0.0 2.0 0.00 0.00 0.00 19 1017.8
20171213080007 55 25 0.0 2.0 0.00 0.00 0.00 18 1018.2
20171213073037 57 25 0.0 7.0 0.00 0.00 0.00 15 1018.2
20171213070036 53 87 3.0 4.0 0.00 0.00 0.00 19 1018.4
20171213063037 54 87 0.0 4.0 0.00 0.00 0.00 19 1018.4
20171213060040 55 87 0.0 4.0 0.00 0.00 0.00 19 1018.6
20171213053041 55 87 1.0 2.0 0.00 0.00 0.00 20 1018.5
20171213050037 56 87 0.0 5.0 0.00 0.00 0.00 20 1018.7
20171213043037 56 87 4.0 4.0 0.00 0.00 0.00 20 1018.6
20171213040022 58 87 0.0 6.0 0.00 0.00 0.00 19 1018.4
20171213033036 59 88 0.0 2.0 0.00 0.00 0.00 18 1018.0
20171213030036 61 88 0.0 2.0 0.00 0.00 0.00 17 1018.0
20171213023036 64 88 0.0 4.0 0.00 0.00 0.00 15 1017.8
20171213020036 67 88 0.0 5.0 0.00 0.00 0.00 12 1018.1
20171213013036 68 88 2.0 8.0 0.00 0.00 0.00 10 1018.0
20171213010036 69 100 0.0 6.0 0.00 0.00 0.00 10 1018.0
20171213003036 69 99 0.0 5.0 0.00 0.00 0.00 11 1017.9
20171213000036 71 99 2.0 7.0 0.00 0.00 0.00 11 1018.1
20171212233036 73 115 2.0 8.0 0.00 0.00 0.00 10 1018.2
20171212230037 74 193 1.0 9.0 0.00 0.00 0.00 10 1018.6
20171212223036 75 90 5.0 8.0 0.00 0.00 0.00 9 1018.7